Location: Pl�tzky
(52.0521°N, 11.8020°E)
Time: 04:50:18
(UTC+00:00)

NOSS 3-2 (A) - Pass Details

Date: 22 November 2019
Orbit: 815 x 1393 km, 63.4° (Epoch: 25 November)

Event Time Altitude Azimuth Distance (km) Brightness Sun altitude
Rises 17:23:46 0° 312° (NW) 3,861 7.2 -19.5°
Reaches altitude 10° 17:26:17 10° 315° (NW) 2,982 6.5 -19.9°
Maximum altitude 17:33:32 76° 41° (NE) 1,268 3.9 -21.0°
Enters shadow 17:38:34 26° 123° (ESE) 2,321 5.0 -21.8°
